Showing default

ICEYE-X13, 48916

Orbit data source: Space-Track

ICEYE-X13, 48916 is a payload satellite owned by ICEYE (FI) in SSO that was launched on Wed, 30 Jun 2021 UTC via an FALCON 9 launch vehicle from the Air Force Eastern Test Range (AFETR). Payload-class satellites include a variety of spacecraft equipped with specific instruments for various scientific and technological missions. These include communications satellites like Starlink; space stations such as the ISS; scientific satellites like the Hubble; Earth observation satellites from companies like Planet Labs, Umbra, and HawkEye 360; GPS; miniature CubeSats for education and research; and military/defense satellites.

Not visible in the next 10 days
Identifier
48916, 2021-059AP
Orbit
SSO
Country
Flag of FIFI / FIN
Related business
Manufacturer
ICEYE
Mission
Operational Commercial Radar Imaging
Bus & Motor
ICEYE, Unknown motor
Mass
80 kg wet, 80 kg dry
Launch date (UTC)
2021-06-30 (4 years ago)
Launch vehicle
FALCON 9
Launch site
Air Force Eastern Test Range (AFETR)
Object type
Payload
Rocket body
Debris
Shape & HBR
Box + 1 Pan, 1.6 m
Radar Cross Section
1.837 m², Medium (>0.1 m² and < 1m²)

Expand to show TLE details & history
Last TLE update: 8 hours ago

TLE from 8 hours ago
0 ICEYE-X13
1 48916U 21059AP  25308.95291941  .00247220  00000-0  90942-3 0  9997
2 48916  97.6388 125.5145 0001664 193.8053 166.3172 15.87641297242958
Epoch: 2025-11-04T22:52Z
TLE epoch observation values (Epoch: 2025-11-04T22:52:12.237Z)
Latitude
-0.00006°
Longitude
98.03097°
Altitude
313.154 km
Speed
7.72 km/s
True Right ascension
08h 22m 03s
True Declination
0° 00' 00"
Sunlit
Object was in daylight at epoch
Visualization orbit readout
Latitude
Unknown
Longitude
Unknown
Altitude
Unknown
Speed
Unknown
Apparent Right ascension
Unknown
Apparent Declination
Unknown
Sunlit
N/A
Visualization observer readout
Local Sidereal Time
03:12:58
Azimuth
Unknown
Elevation
Unknown
Doppler factor
Unknown
Orbital elements
Apogee altitude
306.897 km
Perigee altitude
304.672 km
Semi-major axis
6,683.921 km
Eccentricity
0.00017
Inclination
97.6388°
RAAN
125.5145°
Arg. of periapsis
193.8053°
True anomaly
166.32171°
Mean anomaly
166.3172°
Eccentric anomaly
166.31945°
Mean motion
3.97188 °/min
Orbital period
90.64 mins
BSTAR
0.00090942
Loading maneuver chart data...
Computing Atmospheric mass density...

Documentation

Showing up to 5 results
|